When you browse on this site, cookies collect data to enhance your experience and personalize the content and advertising you see.
Visit our Privacy Policy to learn more. By continuing to use the site, you agree to this use of cookies and data.
  • In Hungary
  • List of Countries
  • For 7 days
  • Water Temperature
  • Weather Map
  • News
  • Weather Widgets
  • user-avatar
    Login

    Hourly Weather Surt

    Today, 24 August, Saturday

    Time Temperature Precipitation Wind Pressure Humidity
    00:00 +24°C° 0 mm 3 mps 741 mmHg 85%
    01:00 +22°C° 0 mm 3 mps 741 mmHg 90%
    02:00 +22°C° 0 mm 3 mps 741 mmHg 91%
    03:00 +22°C° 0 mm 3 mps 741 mmHg 92%
    04:00 +22°C° 0 mm 3 mps 741 mmHg 93%
    05:00 +24°C° 0 mm 3 mps 741 mmHg 89%
    06:00 +25°C° 0 mm 3 mps 741 mmHg 86%
    07:00 +26°C° 0 mm 4 mps 741 mmHg 81%
    08:00 +28°C° 0 mm 4 mps 742 mmHg 67%
    09:00 +30°C° 0 mm 4 mps 742 mmHg 53%
    10:00 +33°C° 0 mm 5 mps 742 mmHg 39%
    11:00 +34°C° 0 mm 5 mps 742 mmHg 35%
    12:00 +36°C° 0 mm 6 mps 742 mmHg 31%
    13:00 +38°C° 0 mm 7 mps 742 mmHg 28%
    14:00 +36°C° 0 mm 7 mps 741 mmHg 28%
    15:00 +36°C° 0 mm 7 mps 741 mmHg 27%
    16:00 +37°C° 0 mm 8 mps 741 mmHg 27%
    17:00 +34°C° 0 mm 7 mps 741 mmHg 34%
    18:00 +32°C° 0 mm 6 mps 741 mmHg 42%
    19:00 +29°C° 0 mm 6 mps 741 mmHg 49%
    20:00 +27°C° 0 mm 5 mps 741 mmHg 60%
    21:00 +26°C° 0 mm 4 mps 741 mmHg 71%
    22:00 +25°C° 0 mm 4 mps 741 mmHg 82%
    23:00 +24°C° 0 mm 3 mps 741 mmHg 85%

    Tomorrow, 25 August, Sunday

    Time Temperature Precipitation Wind Pressure Humidity
    00:00 +24°C° 0 mm 3 mps 741 mmHg 88%
    01:00 +24°C° 0 mm 3 mps 740 mmHg 91%
    02:00 +23°C° 0 mm 2 mps 740 mmHg 91%
    03:00 +23°C° 0 mm 2 mps 740 mmHg 92%
    04:00 +23°C° 0 mm 2 mps 740 mmHg 93%
    05:00 +24°C° 0 mm 2 mps 740 mmHg 91%
    06:00 +24°C° 0 mm 1 mps 740 mmHg 88%
    07:00 +25°C° 0 mm 1 mps 741 mmHg 86%
    08:00 +27°C° 0 mm 2 mps 741 mmHg 72%
    09:00 +29°C° 0 mm 2 mps 741 mmHg 58%
    10:00 +33°C° 0 mm 3 mps 742 mmHg 45%
    11:00 +34°C° 0 mm 3 mps 741 mmHg 39%
    12:00 +36°C° 0 mm 3 mps 741 mmHg 33%
    13:00 +37°C° 0 mm 4 mps 741 mmHg 27%
    14:00 +37°C° 0 mm 5 mps 741 mmHg 28%
    15:00 +38°C° 0 mm 7 mps 740 mmHg 28%
    16:00 +38°C° 0 mm 8 mps 740 mmHg 29%
    17:00 +35°C° 0 mm 8 mps 740 mmHg 37%
    18:00 +32°C° 0 mm 7 mps 740 mmHg 46%
    19:00 +29°C° 0 mm 6 mps 740 mmHg 55%
    20:00 +28°C° 0 mm 5 mps 740 mmHg 64%
    21:00 +26°C° 0 mm 4 mps 741 mmHg 74%
    22:00 +25°C° 0 mm 3 mps 741 mmHg 84%
    23:00 +25°C° 0 mm 3 mps 741 mmHg 87%

    Day after tomorrow, 26 August, Monday

    Time Temperature Precipitation Wind Pressure Humidity
    00:00 +24°C° 0 mm 3 mps 740 mmHg 89%
    01:00 +24°C° 0 mm 2 mps 740 mmHg 92%
    02:00 +24°C° 0 mm 2 mps 740 mmHg 92%
    03:00 +23°C° 0 mm 2 mps 740 mmHg 92%
    04:00 +23°C° 0 mm 2 mps 740 mmHg 92%
    05:00 +24°C° 0 mm 1 mps 740 mmHg 88%
    06:00 +24°C° 0 mm 1 mps 740 mmHg 85%
    07:00 +23°C° 0 mm 0 mps 741 mmHg 81%
    08:00 +27°C° 0 mm 1 mps 741 mmHg 67%
    09:00 +30°C° 0 mm 2 mps 742 mmHg 52%
    10:00 +33°C° 0 mm 3 mps 742 mmHg 37%
    11:00 +35°C° 0 mm 4 mps 742 mmHg 33%
    12:00 +36°C° 0 mm 4 mps 741 mmHg 29%
    13:00 +37°C° 0 mm 4 mps 741 mmHg 24%
    14:00 +37°C° 0 mm 5 mps 741 mmHg 25%
    15:00 +38°C° 0 mm 6 mps 740 mmHg 25%
    16:00 +38°C° 0 mm 8 mps 740 mmHg 26%
    17:00 +35°C° 0 mm 7 mps 740 mmHg 34%
    18:00 +32°C° 0 mm 7 mps 740 mmHg 43%
    19:00 +29°C° 0 mm 6 mps 741 mmHg 51%
    20:00 +28°C° 0 mm 5 mps 741 mmHg 62%
    21:00 +26°C° 0 mm 5 mps 741 mmHg 72%
    22:00 +25°C° 0 mm 4 mps 741 mmHg 83%
    23:00 +24°C° 0 mm 3 mps 741 mmHg 86%

    27 August, Tuesday

    Time Temperature Precipitation Wind Pressure Humidity
    00:00 +24°C° 0 mm 2 mps 741 mmHg 89%
    01:00 +23°C° 0 mm 2 mps 740 mmHg 92%
    02:00 +23°C° 0 mm 2 mps 740 mmHg 93%
    03:00 +23°C° 0 mm 2 mps 740 mmHg 93%
    04:00 +23°C° 0 mm 2 mps 740 mmHg 94%
    05:00 +23°C° 0 mm 1 mps 741 mmHg 92%
    06:00 +24°C° 0 mm 1 mps 741 mmHg 89%
    07:00 +25°C° 0 mm 1 mps 741 mmHg 87%
    08:00 +27°C° 0 mm 1 mps 742 mmHg 72%
    09:00 +29°C° 0 mm 2 mps 742 mmHg 57%
    10:00 +31°C° 0 mm 2 mps 742 mmHg 43%
    11:00 +34°C° 0 mm 3 mps 742 mmHg 36%
    12:00 +36°C° 0 mm 3 mps 742 mmHg 29%
    13:00 +37°C° 0 mm 3 mps 742 mmHg 23%
    14:00 +38°C° 0 mm 4 mps 741 mmHg 22%
    15:00 +39°C° 0 mm 5 mps 741 mmHg 22%
    16:00 +39°C° 0 mm 6 mps 741 mmHg 22%
    17:00 +35°C° 0 mm 6 mps 741 mmHg 35%
    18:00 +32°C° 0 mm 6 mps 741 mmHg 47%
    19:00 +28°C° 0 mm 6 mps 741 mmHg 60%
    20:00 +27°C° 0 mm 5 mps 741 mmHg 68%
    21:00 +26°C° 0 mm 5 mps 741 mmHg 77%
    22:00 +25°C° 0 mm 4 mps 741 mmHg 85%
    23:00 +25°C° 0 mm 3 mps 741 mmHg 88%

    28 August, Wednesday

    Time Temperature Precipitation Wind Pressure Humidity
    00:00 +24°C° 0 mm 2 mps 741 mmHg 91%
    01:00 +23°C° 0 mm 2 mps 740 mmHg 94%
    02:00 +23°C° 0 mm 2 mps 740 mmHg 94%
    03:00 +23°C° 0 mm 2 mps 740 mmHg 94%
    04:00 +23°C° 0 mm 2 mps 740 mmHg 94%
    05:00 +23°C° 0 mm 2 mps 741 mmHg 92%
    06:00 +24°C° 0 mm 1 mps 741 mmHg 89%
    07:00 +24°C° 0 mm 1 mps 742 mmHg 87%
    08:00 +27°C° 0 mm 2 mps 742 mmHg 72%
    09:00 +29°C° 0 mm 2 mps 742 mmHg 57%
    10:00 +31°C° 0 mm 3 mps 742 mmHg 42%
    11:00 +34°C° 0 mm 3 mps 742 mmHg 36%
    12:00 +35°C° 0 mm 3 mps 742 mmHg 30%
    13:00 +37°C° 0 mm 4 mps 742 mmHg 24%
    14:00 +37°C° 0 mm 4 mps 741 mmHg 24%
    15:00 +37°C° 0 mm 5 mps 741 mmHg 23%
    16:00 +39°C° 0 mm 6 mps 741 mmHg 23%
    17:00 +35°C° 0 mm 6 mps 741 mmHg 32%
    18:00 +32°C° 0 mm 6 mps 741 mmHg 41%
    19:00 +29°C° 0 mm 6 mps 741 mmHg 50%
    20:00 +28°C° 0 mm 5 mps 741 mmHg 60%
    21:00 +26°C° 0 mm 4 mps 741 mmHg 69%
    22:00 +25°C° 0 mm 3 mps 741 mmHg 79%
    23:00 +24°C° 0 mm 3 mps 741 mmHg 83%

    29 August, Thursday

    Time Temperature Precipitation Wind Pressure Humidity
    00:00 +24°C° 0 mm 2 mps 741 mmHg 86%
    01:00 +23°C° 0 mm 2 mps 741 mmHg 90%
    02:00 +23°C° 0 mm 2 mps 741 mmHg 91%
    03:00 +22°C° 0 mm 1 mps 741 mmHg 92%
    04:00 +22°C° 0 mm 1 mps 741 mmHg 93%
    05:00 +22°C° 0 mm 1 mps 741 mmHg 90%
    06:00 +23°C° 0 mm 1 mps 741 mmHg 87%
    07:00 +24°C° 0 mm 1 mps 742 mmHg 83%
    08:00 +26°C° 0 mm 1 mps 742 mmHg 68%
    09:00 +29°C° 0 mm 1 mps 742 mmHg 52%
    10:00 +31°C° 0 mm 1 mps 743 mmHg 36%
    11:00 +32°C° 0 mm 1 mps 742 mmHg 31%
    12:00 +34°C° 0 mm 1 mps 742 mmHg 25%
    13:00 +35°C° 0 mm 1 mps 742 mmHg 20%
    14:00 +37°C° 0 mm 2 mps 741 mmHg 19%
    15:00 +37°C° 0 mm 3 mps 741 mmHg 18%
    16:00 +38°C° 0 mm 3 mps 740 mmHg 17%
    17:00 +35°C° 0 mm 4 mps 740 mmHg 27%
    18:00 +32°C° 0 mm 5 mps 740 mmHg 37%
    19:00 +29°C° 0 mm 6 mps 740 mmHg 47%
    20:00 +27°C° 0 mm 5 mps 741 mmHg 55%
    21:00 +26°C° 0 mm 4 mps 741 mmHg 63%
    22:00 +25°C° 0 mm 3 mps 741 mmHg 72%
    23:00 +24°C° 0 mm 3 mps 741 mmHg 77%
    Show more